{"data":{"norad_id":63354,"intl_designator":"2025-061D","name":"LEMUR-2-THERMORAPTOR","alt_names":[],"object_type":"PAYLOAD","status":"ACTIVE","operator":null,"country":"US","launch_date":"2025-03-26","launch_site_code":"RLLB","launch_vehicle":null,"mission":null,"orbit_class":"UNKNOWN","rcs_meters":null,"size_class":null,"mass_kg":null,"dimensions":null,"purposes":["earth_obs"],"wikipedia_slug":null,"has_3d_model":false,"image_url":null,"decayed_at":null,"tle_current":{"epoch":"2026-05-24T21:02:07.084032Z","epoch_age_seconds":89316,"freshness":"FRESH","line1":"1 63354U 25061D   26144.87647088  .00003847  00000+0  21552-3 0  9999","line2":"2 63354  97.5685 121.0768 0018450 342.0151  18.0425 15.13879137 64085","mean_motion":15.13879137,"eccentricity":0.001845,"inclination_deg":97.5685,"raan_deg":121.0768,"arg_perigee_deg":342.0151,"mean_anomaly_deg":18.0425,"bstar":0.00021552,"rev_number":6408,"period_min":95.119878780653,"perigee_km":511.64835322976,"apogee_km":537.11865388789,"semimajor_km":6902.5205035588,"source":"CELESTRAK","updated_at":"2026-05-25T13:38:13.541121Z"}}}